www.pogodaiklimat.ru

Погода и климат >> Архив погоды >> Австралия >> Centre Island


ПОГОДА в Centre Island

  • Прогноз погоды в Centre Island
  • Монитор погоды в Centre Island
  • Климат города

АРХИВ ПОГОДЫ в Centre Island

Время (UTC), дата Ветер
(напр.,м/с)
 
Видим.   Явления Облачность Т
(С)
Тd
(С)
f
(%)
Тe
(С)
Тes
(С)
Комфортность P
(гПа)
Po
(гПа)
Тmin
(С)
Tmax
(С)
R
(мм)
R24
(мм)
S
(см)
02 19.02 ЮВ 3 н/о н/о +32.9 +24.1 60 +45 +45 опасность
перегрева
1008.3 1006.9
03 19.02 ЮВ 3 н/о н/о +33.6 +25.0 61 +47 +47 опасность
перегрева
1007.4 1006.0
05 19.02 СВ 4 н/о н/о +34.7 +24.0 54 +46 +46 опасность
перегрева
1005.9 1004.5
06 19.02 С 5 н/о н/о +34.3 +22.7 51 +44 +44 опасность
перегрева
1005.1 1003.7
08 19.02 С 5 н/о н/о +33.2 +23.8 58 +45 +45 опасность
перегрева
1004.9 1003.5
09 19.02 С 5 н/о н/о +32.0 +23.5 61 +43 +43 опасность
перегрева
1004.7 1003.3
11 19.02 С 5 н/о н/о +30.7 +24.1 68 +43 +43 опасность
перегрева
1006.2 1004.8
12 19.02 С 5 н/о н/о +30.4 +24.5 71 +43 +43 опасность
перегрева
1006.6 1005.2
14 19.02 С 6 н/о н/о +30.0 +25.3 76 +44 +44 опасность
перегрева
1007.2 1005.8
15 19.02 С 5 н/о н/о +29.8 +25.5 78 +44 +44 опасность
перегрева
1006.7 1005.3
17 19.02 С 4 н/о н/о +29.3 +25.7 81 +43 +43 опасность
перегрева
1006.1 1004.7
18 19.02 СЗ 5 н/о н/о +29.7 +25.9 80 +44 +44 опасность
перегрева
1006.3 1004.9
20 19.02 СЗ 5 н/о н/о +29.4 +24.9 77 +42 +42 опасность
перегрева
1006.8 1005.4
21 19.02 СЗ 4 н/о н/о +29.4 +25.6 80 +43 +43 опасность
перегрева
1007.0 1005.6
23 19.02 З 5 н/о н/о +30.4 +24.8 72 +43 +43 опасность
перегрева
1008.3 1006.9
00 20.02 З 6 н/о н/о +30.3 +24.7 72 +43 +43 опасность
перегрева
1008.3 1006.9
02 20.02 ЮЗ 4 н/о н/о +33.5 +25.2 62 +48 +48 опасность
перегрева
1007.9 1006.5
03 20.02 З 4 н/о н/о +34.0 +25.1 60 +48 +48 опасность
перегрева
1006.8 1005.4
05 20.02 Ю 3 н/о н/о +34.1 +24.7 58 +47 +47 опасность
перегрева
1005.2 1003.8
06 20.02 З 3 н/о н/о +34.2 +24.5 57 +47 +47 опасность
перегрева
1004.3 1002.9
08 20.02 С 4 н/о н/о +33.8 +25.5 62 +48 +48 опасность
перегрева
1004.1 1002.7
09 20.02 СЗ 4 н/о н/о +31.7 +25.3 69 +46 +46 опасность
перегрева
1004.3 1002.9
11 20.02 СЗ 4 н/о н/о +30.7 +26.0 76 +46 +46 опасность
перегрева
1004.7 1003.3
12 20.02 СЗ 4 н/о н/о +30.6 +25.9 76 +46 +46 опасность
перегрева
1005.1 1003.7
14 20.02 С 4 н/о н/о +30.4 +26.8 81 +47 +47 опасность
перегрева
1005.1 1003.7
15 20.02 СЗ 4 н/о н/о +30.2 +26.6 81 +47 +47 опасность
перегрева
1004.7 1003.3
17 20.02 СЗ 4 н/о н/о +29.9 +26.3 81 +46 +46 опасность
перегрева
1004.1 1002.7
18 20.02 СЗ 4 н/о н/о +29.8 +26.6 83 +46 +46 опасность
перегрева
1003.9 1002.5
20 20.02 СЗ 4 н/о н/о +29.3 +26.1 83 +44 +44 опасность
перегрева
1004.1 1002.7
21 20.02 СЗ 4 н/о н/о +29.3 +26.5 85 +45 +45 опасность
перегрева
1004.3 1002.9
23 20.02 СЗ 5 н/о н/о +31.2 +26.5 76 +48 +48 опасность
перегрева
1005.5 1004.1
00 21.02 З 4 н/о н/о +32.7 +25.8 67 +48 +48 опасность
перегрева
1006.0 1004.6
02 21.02 С 5 н/о н/о +33.4 +25.9 65 +49 +49 опасность
перегрева
1004.7 1003.3
03 21.02 С 6 н/о н/о +33.3 +25.3 63 +48 +48 опасность
перегрева
1004.0 1002.6
05 21.02 С 6 н/о н/о +34.4 +26.1 62 +50 +50 опасность
перегрева
1002.0 1000.6
06 21.02 С 6 н/о н/о +34.3 +26.2 63 +51 +51 опасность
перегрева
1001.3 999.9
08 21.02 С 7 н/о н/о +32.7 +25.2 65 +47 +47 опасность
перегрева
1000.5 999.1
09 21.02 СЗ 7 н/о н/о +32.0 +24.6 65 +45 +45 опасность
перегрева
1001.0 999.6
11 21.02 ЮВ 12 н/о н/о +28.5 +23.2 73 +38 +38 очень
душно
1004.9 1003.5
12 21.02 СВ 3 н/о н/о +28.0 +24.4 81 +39 +39 очень
душно
1004.4 1003.0
14 21.02 СЗ 7 н/о н/о +29.4 +24.5 75 +42 +42 опасность
перегрева
1003.3 1001.9
15 21.02 СЗ 4 н/о н/о +29.0 +21.0 62 +36 +36 очень
душно
1003.2 1001.8
17 21.02 СЗ 4 н/о н/о +28.8 +21.6 65 +37 +37 очень
душно
1002.0 1000.6
18 21.02 СЗ 5 н/о н/о +29.6 +23.5 70 +40 +40 очень
душно
1001.6 1000.2
20 21.02 СЗ 5 н/о н/о +29.9 +25.9 79 +45 +45 опасность
перегрева
1002.0 1000.6
21 21.02 СЗ 4 н/о н/о +29.8 +26.2 81 +45 +45 опасность
перегрева
1003.2 1001.8
23 21.02 З 6 н/о н/о +31.4 +24.8 68 +45 +45 опасность
перегрева
1004.4 1003.0
00 22.02 З 6 н/о н/о +31.9 +24.5 65 +45 +45 опасность
перегрева
1004.8 1003.4
02 22.02 З 4 н/о н/о +33.3 +24.2 59 +45 +45 опасность
перегрева
1004.5 1003.1
03 22.02 СВ 5 н/о н/о +33.5 +24.4 59 +46 +46 опасность
перегрева
1003.4 1002.0
05 22.02 СЗ 6 н/о н/о +35.4 +25.0 55 +49 +49 опасность
перегрева
1001.2 999.8
06 22.02 СЗ 6 н/о н/о +35.2 +25.4 57 +50 +50 опасность
перегрева
1000.7 999.3
08 22.02 С 6 н/о н/о +32.7 +26.0 68 +48 +48 опасность
перегрева
1000.5 999.1
09 22.02 СЗ 7 н/о н/о +32.0 +26.3 72 +48 +48 опасность
перегрева
1000.3 998.9
11 22.02 СЗ 6 н/о н/о +32.1 +25.9 70 +48 +48 опасность
перегрева
1002.2 1000.8
12 22.02 С 8 н/о н/о +31.5 +26.7 76 +49 +49 опасность
перегрева
1003.2 1001.8
14 22.02 СЗ 7 н/о н/о +30.9 +25.5 73 +45 +45 опасность
перегрева
1002.7 1001.3
15 22.02 СЗ 7 н/о н/о +31.3 +24.9 69 +45 +45 опасность
перегрева
1001.8 1000.4
17 22.02 СЗ 6 н/о н/о +30.9 +25.5 73 +45 +45 опасность
перегрева
1002.0 1000.6
18 22.02 СЗ 6 н/о н/о +30.4 +26.1 78 +46 +46 опасность
перегрева
1002.2 1000.8
20 22.02 СЗ 6 н/о н/о +30.0 +25.1 75 +43 +43 опасность
перегрева
1003.3 1001.9
21 22.02 СЗ 6 н/о н/о +30.1 +25.6 77 +44 +44 опасность
перегрева
1004.1 1002.7
23 22.02 СЗ 7 н/о н/о +31.5 +26.1 73 +47 +47 опасность
перегрева
1004.8 1003.4
00 23.02 СЗ 7 н/о н/о +32.1 +25.9 70 +48 +48 опасность
перегрева
1004.8 1003.4
02 23.02 СЗ 7 н/о н/о +31.9 +24.7 66 +45 +45 опасность
перегрева
1004.2 1002.8
03 23.02 СЗ 9 н/о н/о +32.4 +25.0 65 +46 +46 опасность
перегрева
1003.1 1001.7
05 23.02 С 7 н/о н/о +32.5 +24.8 64 +46 +46 опасность
перегрева
1002.3 1000.9
06 23.02 СЗ 8 н/о н/о +31.8 +24.7 66 +45 +45 опасность
перегрева
1002.0 1000.6
08 23.02 СЗ 7 н/о н/о +31.5 +23.9 64 +43 +43 опасность
перегрева
1000.6 999.2
09 23.02 СЗ 6 н/о н/о +30.9 +23.8 66 +42 +42 опасность
перегрева
1001.4 1000.0
11 23.02 СЗ 2 н/о н/о +30.4 +24.8 72 +43 +43 опасность
перегрева
1003.8 1002.4
12 23.02 ЮВ 10 н/о н/о +27.7 +23.5 78 +38 +38 очень
душно
1004.9 1003.5
14 23.02 С 9 н/о н/о +25.9 +23.4 86 +35 +35 очень
душно
1004.0 1002.6
15 23.02 СЗ 8 н/о н/о +25.1 +23.0 88 +33 +33 очень
душно
1003.6 1002.2
17 23.02 СЗ 7 н/о н/о +26.4 +23.5 84 +36 +36 очень
душно
1002.6 1001.2
18 23.02 З 7 н/о н/о +27.2 +23.4 80 +37 +37 очень
душно
1002.9 1001.5
20 23.02 Ю 13 н/о н/о +25.6 +24.7 95 +36 +36 очень
душно
1006.9 1005.5
21 23.02 З 5 н/о н/о +25.6 +23.1 86 +34 +34 очень
душно
1004.9 1003.5
23 23.02 З 4 н/о н/о +26.5 +24.0 86 +37 +37 очень
душно
1005.8 1004.4
00 24.02 СЗ 4 н/о н/о +26.5 +23.8 85 +36 +36 очень
душно
1006.7 1005.3
02 24.02 З 7 н/о н/о +28.6 +22.1 68 +37 +37 очень
душно
1007.0 1005.6
03 24.02 З 6 н/о н/о +29.2 +21.7 64 +37 +37 очень
душно
1006.3 1004.9
05 24.02 В 3 н/о н/о +31.9 +22.9 59 +42 +42 опасность
перегрева
1004.7 1003.3
06 24.02 ЮВ 3 н/о н/о +30.9 +21.7 58 +39 +39 очень
душно
1004.2 1002.8
08 24.02 С 4 н/о н/о +30.4 +22.3 62 +39 +39 очень
душно
1004.6 1003.2
09 24.02 С 4 н/о н/о +29.7 +22.9 67 +40 +40 очень
душно
1004.9 1003.5
11 24.02 С 4 н/о н/о +28.9 +24.0 75 +40 +40 очень
душно
1006.6 1005.2
12 24.02 С 3 н/о н/о +28.7 +24.7 79 +41 +41 опасность
перегрева
1007.5 1006.1
14 24.02 С 3 н/о н/о +28.4 +25.2 83 +41 +41 опасность
перегрева
1007.3 1005.9
15 24.02 СЗ 3 н/о н/о +28.0 +25.0 84 +40 +40 очень
душно
1006.4 1005.0
17 24.02 З 2 н/о н/о +28.2 +24.6 81 +40 +40 очень
душно
1005.6 1004.2
18 24.02 СЗ 3 н/о н/о +27.9 +24.7 83 +40 +40 очень
душно
1005.1 1003.7
20 24.02 З 2 н/о н/о +27.5 +25.1 87 +40 +40 очень
душно
1005.9 1004.5
21 24.02 З 3 н/о н/о +28.1 +25.9 88 +42 +42 опасность
перегрева
1006.4 1005.0
23 24.02 С 2 н/о н/о +30.5 +25.1 73 +44 +44 опасность
перегрева
1007.4 1006.0
00 25.02 С 3 н/о н/о +32.2 +25.3 67 +46 +46 опасность
перегрева
1007.9 1006.5
02 25.02 С 4 н/о н/о +33.8 +24.9 60 +47 +47 опасность
перегрева
1007.1 1005.7
03 25.02 Ю 2 н/о н/о +33.2 +24.4 60 +46 +46 опасность
перегрева
1006.5 1005.1
05 25.02 С 4 н/о н/о +34.7 +26.1 61 +51 +51 опасность
перегрева
1004.4 1003.0
06 25.02 С 3 н/о н/о +34.2 +23.9 55 +46 +46 опасность
перегрева
1004.1 1002.7
08 25.02 С 5 н/о н/о +32.0 +25.1 67 +46 +46 опасность
перегрева
1003.6 1002.2
09 25.02 С 5 н/о н/о +30.7 +25.5 74 +45 +45 опасность
перегрева
1004.4 1003.0
11 25.02 С 5 н/о н/о +30.3 +25.4 75 +44 +44 опасность
перегрева
1005.8 1004.4
12 25.02 С 4 н/о н/о +30.1 +25.8 78 +45 +45 опасность
перегрева
1006.4 1005.0
14 25.02 С 3 н/о н/о +29.5 +26.1 82 +45 +45 опасность
перегрева
1006.8 1005.4
15 25.02 СЗ 2 н/о н/о +29.2 +25.6 81 +43 +43 опасность
перегрева
1006.3 1004.9
17 25.02 Ю 5 н/о н/о +27.4 +21.9 72 +35 +35 очень
душно
1005.4 1004.0
18 25.02 З 3 н/о н/о +27.4 +22.4 74 +36 +36 очень
душно
1004.5 1003.1
20 25.02 ЮЗ 3 н/о н/о +26.3 +21.7 76 +34 +34 очень
душно
1005.6 1004.2
21 25.02 Ю 5 н/о н/о +26.7 +21.7 74 +34 +34 очень
душно
1006.1 1004.7
23 25.02 ЮВ 3 н/о н/о +27.5 +22.7 75 +36 +36 очень
душно
1008.1 1006.7

 

Местоположение метеостанции Centre Island (Северная территория, Австралия): широта -15.75 долгота 136.80 высота над уровнем моря 13 м.

В архиве по умолчанию представлена погода в Centre Island за последнюю неделю. Архивные данные за месяц целиком и за предыдущие месяцы, начиная с января 2011 года, Вы можете получить, выбрав интересующий диапазон дат из раскрывающегося списка и нажав кнопку "Ввод!".

Внимание! Время в таблицах - всемирное. Для получения местного времени необходимо прибавить поправку, которая в Centre Island равна 9.5 ч.

Смотрите также архив погоды в соседних городах и на ближайших метеорологических станциях:

Погода в Borroloola (Северная территория, Австралия) (65 км)
Погода в Mcarthur River Mine (Северная территория, Австралия) (109 км)
Погода в Groote Eylandt Airport (Северная территория, Австралия) (200 км)
Погода в North East Island (Северная территория, Австралия) (234 км)
Погода в Mornington Island (Квинсленд, Австралия) (273 км)
Погода в Bulman Aws (Северная территория, Австралия) (352 км)
Погода в Burketown Airport (Квинсленд, Австралия) (366 км)
Погода в Daly Waters Aws (Северная территория, Австралия) (371 км)
Погода в Gove Airport (Северная территория, Австралия) (386 км)
Погода в Century Mine (Квинсленд, Австралия) (390 км)

Пояснения к столбцам:

Ветер - указаны скорость ветра в м/с - средняя за 10 мин, порывы в срок и между сроками (в фигурных скобках) и направление, откуда дует ветер: С - северный, СВ - северо-восточный, В - восточный, ЮВ - юго-восточный, Ю - южный, ЮЗ - юго-западный, З - западный, СЗ - северо-западный.
Видимость - горизонтальная дальность видимости в метрах или километрах. При видимости от 1 до 10 км при отсутствии осадков обычно наблюдается дымка, при ухудшении видимости до 1 км и менее - туман. В сухую погоду видимость может ухудшаться дымом, пылью или мглою.
Явления - указаны атмосферные явления, наблюдавшиеся в срок или в последний час перед сроком; фигурными скобками обозначены явления, наблюдавшиеся между сроками (за 1-3 часа до срока); квадратными скобками обозначены град или гололедные отложения с указанием их диаметра в мм.
Облачность - указаны через наклонную черту общая и нижняя облачность в баллах и высота нижней границы облаков в метрах; квадратными скобками обозначены формы облаков: Ci - перистые, Cs - перисто-слоистые, Cc - перисто-кучевые, Ac - высококучевые, As - высокослоистые, Sc - слоисто-кучевые, Ns - слоисто-дождевые, Cu - кучевые, Cb - кучево-дождевые. Подробнее классификацию облаков см. в Атласе облаков (PDF).
T - Температура воздуха - температура, измеренная на высоте 2 м над землей.
Td - Температура точки росы - температура, при понижении до которой содержащийся в воздухе водяной пар достигнет насыщения.
f - Относительная влажность воздуха - влажноcть воздуха, измеренная на высоте 2 м над землей.
Te - Эффективная температура - температура, которую ощущает одетый по сезону человек в тени. Характеристика душности погоды. При расчете учитывается влияние влажности воздуха и скорости ветра на теплоощущения человека.
Tes - Эффективная температура на солнце - температура, которую ощущает человек, с поправкой на солнечный нагрев. Характеристика знойности погоды. Зависит от высоты солнца над горизонтом, облачности и скорости ветра. Ночью, в пасмурную погоду, а также при ветре 12 м/с и более поправка равна нулю.
P - Атмосферное давление - приведенное к уровню моря атмосферное давление.
Po - Атмосферное давление - измеренное на уровне метеостанции атмосферное давление.
Tmin - Минимальная температура - минимум температуры воздуха на высоте 2 м над землей.
Tmax - Максимальная температура - максимум температуры воздуха на высоте 2 м над землей.
R - Количество осадков - Количество выпавших осадков за период времени, мм. При наведении курсора мыши на число - период времени, за который выпало указанное количество осадков.
R24 - Количество осадков - Количество выпавших осадков за 24 часа, мм.
S - Снежный покров - Высота снежного покрова, см. При наведении курсора мыши на число - состояние снежного покрова и степень покрытия местности в баллах.